Orbital Elements at Epoch 2459200.5 (2020-Dec-17.0) TDB
Reference: JPL 15 (heliocentric ecliptic J2000)
Element | Value | Uncertainty (1-sigma) | Units |
e | .1312054798124592 | 5.1956e-08 | |
a | 2.37611671482177 | 1.2268e-08 | au |
q | 2.064357181163175 | 1.2264e-07 | au |
i | 3.209187617978168 | 3.9904e-06 | deg |
node | 336.1699977325099 | 9.189e-05 | deg |
peri | 69.04597626976894 | 9.4097e-05 | deg |
M | 11.89760001906377 | 1.6777e-05 | deg |
tp | 2459156.286291399131 (2020-Nov-02.78629140) | 6.2482e-05 | TDB |
period | 1337.827382901508 3.66 | 1.0361e-05 2.837e-08 | d yr |
n | .2690930119992195 | 2.0841e-09 | deg/d |
Q | 2.687876248480364 | 1.3878e-08 | au |
|
| | Orbit Determination Parameters
Additional Information
|